Погода в Ильинке

Украина / Одесская область     46°41′00″N   30°38′18″E
темп.,
°C
ветер,
м/с
пор.,
м/с
влажн.,
%
обл.,
%
осадки,
мм/ч
давл.,
гПа
погр.,
м
2 марта, вт
вт223:00+2с4779100 0.1 1032619
02:00+1ссз368597 0.1 1033217
05:00+1сз357994 0.0 1032202
08:00+1зсз237449 0.0 1032155
11:00+5з456019 0.0 1030963
14:00+8з685517 0.0 1028946
17:00+8з5106188 0.0 1025816
20:00+6з5137249 0.0 1024405
3 марта, ср
ср323:00+5сз5137732 0.0 1024535
02:00+4с7107951 0.0 1026893
05:00+4ссз51070100 0.0 10271112
08:00+4ссз6106856 0.0 1029664
11:00+7ссз57570 0.0 10291070
14:00+9ссз55420 0.0 10291278
17:00+8сз344839 0.0 1028384
20:00+5зсз236069 0.0 102832
4 марта, чт
чт423:00+4зюз22629 0.0 102722
02:00+3юз33654 0.0 102632
05:00+2ююз34700 0.0 102356
08:00+4юз49810 0.0 1022288
11:00+10юз610590 0.0 1020710
14:00+12ююз710520 0.0 1017974
17:00+11ююз595758 0.0 1015388
20:00+7ююз597832 0.0 1015211
5 марта, пт
пт523:00+6юз47845 0.0 1014136
02:00+5юз238613 0.0 101328
05:00+5ю238588 0.0 101224
08:00+6ю248294 0.0 1012124
11:00+11ююз4558100 0.0 1011418
14:00+15юз354084 0.0 1010902
17:00+13св125127 0.0 101083
20:00+9ссв496820 0.0 1011248
6 марта, сб
сб623:00+6ссв368567 0.0 1012166
02:00+6с598784 0.0 1014385
05:00+4с81087100 0.3 1015490
08:00+2ссв91368100 0.4 1018784
11:00+4с81044100 0.0 10201255
14:00+4с7944100 0.0 10221488
17:00+3с7936100 0.0 10231690
20:000ссз485053 0.0 1026301